This demonstration page uses our WeatherBlox Daily Observations layout. Learn more.

Left ArrowRight Arrow

Hourly Observations for May 31, 2020

Temp ( °F °C ) Dew Point ( °F °C ) Humidity (%) Winds ( mph kmh ) Pressure ( in mb ) Visibility ( mi km ) Precip ( " mm )
12:52 am 00:52 Clear 63 17.2 54 12.2 73 73 ENE 7 11 30.18 1022 10 16 0.00 0.00
1:52 am 01:52 Clear 62 16.7 54 12.2 75 75 NE 3 6 30.18 1022 10 16 0.00 0.00
2:52 am 02:52 Clear 61 16.1 54 12.2 78 78 NE 5 7 30.19 1022 10 16 0.00 0.00
3:52 am 03:52 Partly Cloudy 60 15.6 54 12.2 80 80 Calm 30.19 1022 10 16 0.00 0.00
4:52 am 04:52 Mostly Cloudy 59 15 55 12.8 87 87 E 3 6 30.20 1023 10 16 0.00 0.00
5:52 am 05:52 Mostly Cloudy 60 15.6 54 12.2 80 80 ESE 5 7 30.21 1023 10 16 0.00 0.00
6:52 am 06:52 Sunny 61 16.1 54 12.2 78 78 SE 5 7 30.22 1023 10 16 0.00 0.00
7:52 am 07:52 Sunny 65 18.3 54 12.2 68 68 SE 6 9 30.24 1024 10 16 0.00 0.00
8:52 am 08:52 Sunny 68 20 56 13.3 65 65 S 12 19 30.25 1024 10 16 0.00 0.00
9:52 am 09:52 Partly Cloudy 69 20.6 55 12.8 61 61 S 10 17 30.25 1024 10 16 0.00 0.00
10:52 am 10:52 Sunny 73 22.8 56 13.3 55 55 SSE 9 15 30.24 1024 10 16 0.00 0.00
11:52 am 11:52 Sunny 74 23.3 55 12.8 52 52 E 3 6 30.24 1024 10 16 0.00 0.00
12:52 pm 12:52 Mostly Cloudy 74 23.3 56 13.3 54 54 SSE 5 7 30.23 1024 10 16 0.00 0.00
1:52 pm 13:52 Sunny 77 25 57 13.9 50 50 ENE 3 6 30.21 1023 10 16 0.00 0.00
2:52 pm 14:52 Sunny 77 25 59 15 54 54 S 3 6 30.18 1022 10 16 0.00 0.00
3:52 pm 15:52 Sunny 79 26.1 60 15.6 52 52 ESE 8 13 30.17 1022 10 16 0.00 0.00
4:52 pm 16:52 Sunny 80 26.7 60 15.6 51 51 VRB 3 6 30.15 1021 10 16 0.00 0.00
5:52 pm 17:52 Sunny 79 26.1 59 15 50 50 E 6 9 30.14 1021 10 16 0.00 0.00
6:52 pm 18:52 Mostly Sunny 78 25.6 60 15.6 54 54 SE 8 13 30.14 1021 10 16 0.00 0.00
7:52 pm 19:52 Sunny 75 23.9 62 16.7 64 64 SSE 5 7 30.15 1021 10 16 0.00 0.00
8:52 pm 20:52 Mostly Cloudy 73 22.8 60 15.6 64 64 SSE 6 9 30.16 1021 10 16 0.00 0.00
9:52 pm 21:52 Clear 71 21.7 60 15.6 68 68 S 8 13 30.17 1022 10 16 0.00 0.00
10:52 pm 22:52 Clear 68 20 59 15 73 73 SSE 7 11 30.17 1022 10 16 0.00 0.00
11:52 pm 23:52 Clear 66 18.9 58 14.4 75 75 SE 5 7 30.17 1022 10 16 0.00 0.00

Powered by AerisWeather